Trapani Birgi current weather conditions

sailwx.info

Wind from 080 at 4 knots

Air temperature 26.0° C
Dewpoint 13.0° C

Last reported at 2015-Jul-31 02:55 UTC.
Time now 2015-Jul-31 05:06 UTC

Location: N 37°55' E 012°29'.
View on Google Maps.

See reports from other nearby stations

  
Tides and Currents Weather Stations Pressure Air Temp Water Temp Dewpoint Dewpoint Depression Visibility Wind Speed Wind Dir Waves Ship Positions
date/time (UTC)wind fromknots sea level pressurealtimeterstation pressurevisibilityair tempwater tempwave heightnotes
2015-Jul-31 02:55 080 4 26.0
2015-Jul-31 01:55 150 3 26.0
2015-Jul-31 00:55 130 5 5.426.0
2015-Jul-30 23:55 140 5 5.426.0
2015-Jul-30 22:55 100 3 5.428.0
2015-Jul-30 21:55 220 8 5.428.0
2015-Jul-30 20:55 180 2 28.0
2015-Jul-30 19:55 190 3 28.0
2015-Jul-30 18:55 250 4 29.0
2015-Jul-30 17:55 300 3 33.0
2015-Jul-30 16:55 300 5 35.0
2015-Jul-30 15:55 330 5 35.0
2015-Jul-30 14:55 330 6 35.0
2015-Jul-30 13:55 320 6 36.0
2015-Jul-30 12:55 36.0
2015-Jul-30 11:55 330 6 34.0
2015-Jul-30 10:55 310 6 32.0
2015-Jul-30 09:55 270 6 32.0
2015-Jul-30 08:55 240 7 30.0
2015-Jul-30 07:55 220 3 30.0
2015-Jul-30 06:55 190 4 28.0
2015-Jul-30 05:55 140 4 25.0
2015-Jul-30 04:55 130 4 22.0
2015-Jul-30 03:55 120 5 23.0
2015-Jul-30 02:55 110 5 22.0
2015-Jul-30 01:55 120 5 22.0
2015-Jul-30 00:55 110 4 24.0
2015-Jul-29 23:55 120 3 24.0
2015-Jul-29 22:55 260 1 24.0
2015-Jul-29 21:55 130 2 25.0
2015-Jul-29 20:55 050 2 27.0
2015-Jul-29 19:55 340 8 28.0
2015-Jul-29 18:55 350 7 28.0
2015-Jul-29 17:55 330 8 29.0
2015-Jul-29 16:55 330 10 30.0
2015-Jul-29 15:55 320 12 29.0
2015-Jul-29 14:55 330 11 5.430.0
2015-Jul-29 13:55 320 10 5.430.0
2015-Jul-29 12:55 330 10 29.0
2015-Jul-29 11:55 300 12 30.0
2015-Jul-29 10:55 310 9 30.0
2015-Jul-29 09:55 290 8 30.0
2015-Jul-29 08:55 240 7 30.0
2015-Jul-29 07:55 260 9 28.0
2015-Jul-29 06:55 250 5 28.0
2015-Jul-29 05:55 170 3 24.0